Location: La Oliva
(42.2466°N, 2.9955°E)
Time: 10:30:24
(UTC+00:00)

Cosmos 1763 Rocket - Pass Details

Date: 22 April 2021
Orbit: 733 x 779 km, 74.0° (Epoch: 10 May)

Event Time Altitude Azimuth Distance (km) Brightness Sun altitude
Rises 20:56:46 0° 345° (NNW) 3,173 7.7 -22.8°
Reaches altitude 10° 20:59:13 10° 351° (N) 2,244 6.6 -23.2°
Maximum altitude 21:04:07 47° 66° (ENE) 968 3.8 -23.8°
Enters shadow 21:04:17 47° 72° (ENE) 971 3.8 -23.8°
